Change the Weather History Date:

Saturday, July 20, 2013

  Actual Average Record
Temperature  
Mean Temperature 72 °F 71 °F  
Max Temperature 81 °F 81 °F 100 °F (1940)
Min Temperature 63 °F 61 °F 47 °F (1970)
Degree Days  
Heating Degree Days 0 0  
Month to date heating degree days 0 0  
Since 1 June heating degree days 60  
Since 1 July heating degree days 0 0  
Cooling Degree Days 7 7  
Month to date cooling degree days 201 140  
Year to date cooling degree days 357 304  
Since 1 June cooling degree days 327  
Growing Degree Days 22 (Base 50)    
Moisture  
Dew Point 61 °F    
Average Humidity 71    
Maximum Humidity 93    
Minimum Humidity 49    
Precipitation  
Precipitation 0.00 in 0.15 in 1.33 in (1951)
Month to date precipitation 1.55 2.97  
Year to date precipitation 32.31 18.09  
Snow  
Snow 0.00 in 0.00 in 0.00 in (2012)
Month to date snowfall 0.0 0.0  
Since 1 June snowfall 0.0  
Since 1 July snowfall 0.0 0.0  
Snow Depth 0.00 in    
Sea Level Pressure  
Sea Level Pressure 29.93 in    
Wind  
Wind Speed 4 mph (WNW)    
Max Wind Speed 10 mph    
Max Gust Speed 13 mph    
Visibility 10 miles    
Events Rain    
T = Trace of Precipitation, MM = Missing Value Source: NWS Daily Summary

Daily Weather History Graph

Daily Weather History Graph

Search for Another Location

Airport or City:

Trip Planner

Search our weather history database for the weather conditions in past years. The results will help you decide how hot, cold, wet, or windy it might be!

Date:

Astronomy

Jul. 20, 2013 Rise Set
Actual Time 5:46 AM CDT 8:45 PM CDT
Civil Twilight 5:11 AM CDT 9:20 PM CDT
Nautical Twilight 4:28 AM CDT 10:03 PM CDT
Astronomical Twilight 3:36 AM CDT 10:55 PM CDT
Moon 6:49 PM CDT (7/20) 3:26 AM CDT (7/20)
Length of Visible Light 16h 08m
Length of Day
14h 59m
Waxing Gibbous, 94% of the Moon is Illuminated
Jul 20
Waxing Gibbous
Jul 22
Full
Jul 29
Last Quarter
Aug 6
New
Aug 14
First Quarter

Hourly Weather History & Observations

Time (CDT) Temp. Heat Index Dew Point Humidity Pressure Visibility Wind Dir Wind Speed Gust Speed Precip Events Conditions
12:54 AM 64.9 °F - 60.1 °F 84% 29.91 in 10.0 mi West 6.9 mph - N/A   Clear
1:54 AM 64.0 °F - 60.1 °F 87% 29.91 in 10.0 mi West 6.9 mph - N/A   Clear
2:54 AM 64.0 °F - 60.1 °F 87% 29.90 in 10.0 mi WSW 6.9 mph - N/A   Clear
3:54 AM 64.0 °F - 60.1 °F 87% 29.90 in 10.0 mi West 6.9 mph - N/A   Clear
4:54 AM 64.0 °F - 60.1 °F 87% 29.90 in 10.0 mi West 8.1 mph - N/A   Clear
5:54 AM 63.0 °F - 60.1 °F 90% 29.92 in 9.0 mi West 6.9 mph - N/A   Clear
6:54 AM 64.9 °F - 61.0 °F 87% 29.93 in 9.0 mi WNW 4.6 mph - N/A   Clear
7:54 AM 69.1 °F - 62.1 °F 78% 29.94 in 10.0 mi West 3.5 mph - N/A   Clear
8:54 AM 73.0 °F - 61.0 °F 66% 29.94 in 10.0 mi NNW 9.2 mph - N/A   Clear
9:54 AM 73.9 °F - 61.0 °F 64% 29.94 in 10.0 mi NNW 5.8 mph - 0.00 in   Clear
10:54 AM 73.9 °F - 62.1 °F 66% 29.94 in 10.0 mi North 6.9 mph - N/A   Clear
11:54 AM 73.9 °F - 63.0 °F 68% 29.95 in 10.0 mi Calm Calm - N/A   Clear
12:54 PM 73.9 °F - 62.1 °F 66% 29.96 in 10.0 mi West 4.6 mph - N/A   Clear
1:54 PM 78.1 °F - 64.0 °F 62% 29.95 in 10.0 mi West 5.8 mph - 0.00 in   Clear
2:54 PM 78.1 °F - 62.1 °F 58% 29.94 in 10.0 mi North 4.6 mph - N/A   Partly Cloudy
3:54 PM 79.0 °F - 60.1 °F 52% 29.93 in 10.0 mi Calm Calm - N/A   Clear
4:54 PM 79.0 °F - 59.0 °F 50% 29.92 in 10.0 mi Calm Calm - N/A   Clear
5:54 PM 80.1 °F 80.7 °F 59.0 °F 48% 29.91 in 10.0 mi Calm Calm - N/A   Clear
6:54 PM 78.1 °F - 62.1 °F 58% 29.90 in 10.0 mi North 6.9 mph - 0.00 in Rain Light Rain
7:54 PM 77.0 °F - 62.1 °F 60% 29.91 in 10.0 mi North 3.5 mph - N/A   Clear
8:54 PM 75.0 °F - 61.0 °F 62% 29.91 in 10.0 mi North 3.5 mph - N/A   Clear
9:54 PM 71.1 °F - 62.1 °F 73% 29.93 in 10.0 mi Calm Calm - 0.00 in   Clear
10:54 PM 71.1 °F - 62.1 °F 73% 29.94 in 10.0 mi ESE 3.5 mph - N/A   Clear
11:54 PM 68.0 °F - 63.0 °F 84% 29.95 in 10.0 mi Calm Calm - N/A   Clear